Temp
17 17 17 17 17 18 18 19 19 19 19 19 19 19 20 20 20 20 16 17 17 19 19 21 22 22 22 22 22 21 18 19 21 22 23 23 22 22 22 23 23 23 20 20 19
16 17 17 17 18 18 18 19 19 19 19 19 19 19 19 19 20 17 17 18 19 19 20 19 20 20 20 23 20 19 17 22 21 21 21 21 22 22 23 21 22 22 19 19 20
16 16 17 17 18 18 18 18 19 20 20 19 19 19 19 19 20 18 18 18 19 19 19 19 20 20 23 22 22 21 20 22 21 21 20 21 21 20 22 21 22 21 19 19 19
16 16 17 17 17 18 18 18 19 20 20 19 19 19 19 19 22 18 18 18 19 19 19 20 20 22 21 21 22 20 21 21 21 20 20 20 19 20 20 20 21 21 20 20 18
15 16 16 16 17 17 18 18 19 19 19 19 19 19 19 19 18 18 18 18 19 19 19 20 21 21 21 22 22 21 21 21 20 20 20 20 19 19 19 19 20 20 21 21 20
15 15 16 16 17 18 18 18 19 19 19 19 19 19 19 20 17 17 18 18 18 19 19 19 19 20 22 21 21 21 21 21 21 21 21 20 19 19 20 20 22 21 20 19 18
14 15 16 16 17 18 18 19 19 19 19 18 18 19 18 18 18 18 18 17 18 18 18 18 19 21 21 20 21 21 20 20 20 21 20 19 20 18 20 20 21 20 19 19 18
14 15 15 16 17 18 19 19 19 19 19 18 18 18 18 18 18 18 18 18 18 18 18 18 19 20 21 20 20 20 20 20 20 20 20 19 19 22 19 19 20 21 20 19 18
14 15 15 16 17 18 19 20 20 19 19 19 19 18 19 18 18 17 17 17 18 18 18 19 19 19 19 19 17 20 19 21 21 19 20 19 18 20 19 19 19 19 18 18 18
14 14 15 16 17 18 19 20 19 19 19 18 18 18 17 18 17 17 17 18 17 17 18 18 17 18 17 17 16 19 20 21 20 19 18 18 16 17 17 18 18 18 16 16 17
14 14 15 16 16 17 19 19 15 17 17 17 17 17 18 17 17 17 17 17 18 18 18 19 17 17 18 20 20 19 20 19 18 17 18 17 16 17 17 17 16 16 14 15 17
13 14 15 16 16 16 17 14 13 13 13 16 16 16 16 16 17 17 17 18 19 19 20 18 18 19 17 18 19 19 18 17 19 18 17 16 16 17 16 16 16 15 14 16 17
12 13 14 15 16 16 15 14 13 12 12 15 16 16 16 16 17 16 17 18 19 19 19 18 18 18 19 18 19 19 17 18 18 15 16 15 15 18 18 16 15 16 16 16 15
12 12 12 15 15 14 14 14 13 13 12 13 16 16 15 16 17 16 16 17 19 19 19 19 18 18 18 18 17 18 17 17 16 13 13 15 15 15 17 16 16 15 14 13 14
12 11 11 12 12 13 14 14 13 12 12 17 16 15 16 16 16 16 16 16 18 19 17 18 16 17 17 18 18 16 16 16 15 12 10 13 11 14 15 15 15 14 13 13 14
11 11 11 12 12 14 14 14 13 13 12 14 15 16 16 16 17 16 16 16 17 18 18 17 16 17 17 16 16 15 15 14 11 9 9 13 13 15 15 16 16 15 14 14 14
10 11 11 12 13 13 14 13 12 12 17 17 16 16 16 16 17 16 16 15 16 15 15 17 16 16 16 16 15 15 13 12 11 11 14 14 13 14 17 17 16 15 13 13 13
10 9 10 11 12 12 14 12 12 14 16 18 18 17 17 17 17 16 16 15 15 17 14 13 14 14 14 16 14 13 13 13 14 13 14 14 13 16 15 16 14 14 13 13 12
9 10 10 11 11 12 12 12 11 14 17 17 17 16 16 17 18 16 15 15 16 16 16 14 15 15 15 16 15 14 13 14 14 14 9 12 14 16 15 14 14 13 13 12 12
8 9 10 11 11 11 12 14 13 16 17 17 16 16 16 16 16 15 14 16 17 17 18 17 16 14 14 15 14 14 14 13 11 13 12 12 14 16 13 13 13 13 13 12 11
7 8 8 10 11 11 12 12 15 15 16 16 15 15 16 17 16 15 16 17 17 18 17 17 16 12 12 12 12 12 13 13 13 12 13 12 14 14 15 14 13 13 13 12 11
7 8 7 8 11 11 12 13 14 14 15 15 15 14 14 16 16 16 15 18 18 16 16 16 15 12 11 13 13 12 15 15 14 14 10 9 16 16 14 14 13 13 13 12 11
7 6 7 7 9 12 12 13 14 14 15 14 15 15 16 15 15 16 17 18 17 16 15 15 14 11 13 12 13 12 13 14 14 13 14 12 15 14 14 14 14 13 13 12 12
6 6 6 6 5 6 7 9 11 9 10 9 11 12 13 14 16 16 16 16 14 17 15 16 13 12 16 15 13 11 12 14 15 14 15 15 16 14 14 14 14 15 14 13 12
5 5 5 6 6 5 5 5 7 8 7 7 8 7 8 10 13 14 15 16 12 10 11 13 12 13 14 16 14 14 13 13 14 15 14 16 15 16 14 13 13 13 13 13 12
5 5 5 5 4 5 5 6 7 7 6 7 7 6 5 7 7 7 7 7 7 7 9 9 11 12 12 15 14 12 12 12 14 15 15 16 15 15 13 13 13 13 12 12 11
5 5 5 6 5 6 6 6 6 6 6 6 5 6 6 6 5 6 6 6 6 6 7 7 8 9 11 10 10 10 11 12 12 13 14 13 14 13 13 12 12 11 11 11 10
Height
837 835 833 831 830 828 825 822 818 815 812 810 808 806 805 804 803 802 804 806 802 801 799 797 796 796 796 797 798 801 827 837 828 823 821 810 815 808 806 809 808 805 807 809 814
838 836 833 831 829 827 824 821 818 815 812 810 808 807 805 805 804 804 806 804 802 800 799 798 799 798 799 798 802 812 835 824 818 817 819 815 812 812 811 814 811 809 810 811 813
838 835 833 831 828 826 824 821 817 814 811 810 808 806 805 805 806 806 805 803 802 800 799 798 798 799 801 800 804 808 826 814 817 815 815 815 815 813 812 816 809 812 811 811 811
837 835 833 831 829 827 823 820 817 813 811 810 808 806 805 806 813 807 805 803 802 801 800 798 798 801 806 810 802 816 813 813 815 814 816 817 815 815 812 811 806 804 805 808 810
837 835 833 831 828 825 822 819 816 813 810 809 808 806 806 806 809 807 805 803 802 801 800 799 798 802 809 807 807 811 812 811 813 812 813 814 817 817 811 804 804 804 804 805 806
836 834 832 830 826 823 820 817 815 812 810 808 807 806 806 812 808 807 805 804 803 802 801 800 801 800 803 807 812 810 810 810 812 812 811 815 815 815 804 800 802 802 803 804 805
836 834 831 828 825 821 818 816 812 810 809 808 806 805 805 810 807 807 806 805 805 804 802 802 801 801 802 809 807 810 817 815 814 812 813 812 814 816 802 801 803 803 803 802 802
835 833 830 828 824 821 817 813 810 808 808 807 806 805 807 807 807 806 806 806 806 806 805 803 802 801 803 806 810 816 816 825 814 812 812 815 824 801 801 803 804 801 801 801 801
835 833 830 828 824 820 815 811 807 806 807 807 807 807 808 807 807 806 806 807 806 806 806 804 804 805 807 816 829 819 831 819 816 813 814 817 821 803 801 803 803 801 802 800 800
835 833 830 827 824 819 813 808 806 806 807 807 807 811 809 809 807 806 806 806 806 807 808 807 810 815 818 825 846 829 824 818 821 818 817 819 819 809 804 802 802 800 801 802 802
834 833 830 827 822 819 813 808 812 812 809 812 812 810 808 808 807 807 807 807 806 809 818 810 822 827 818 814 816 819 823 827 821 819 818 817 818 802 801 798 801 802 806 804 801
833 831 829 826 823 820 818 821 828 829 823 808 809 810 809 809 809 807 807 809 808 814 809 821 824 814 816 815 817 821 827 831 820 819 821 820 808 796 797 795 798 803 804 802 801
831 830 828 826 822 821 822 826 826 826 827 810 808 808 810 811 809 809 808 807 808 811 813 824 821 815 815 821 822 823 829 826 827 827 822 823 816 794 792 793 795 795 793 795 798
828 828 827 826 825 823 823 824 824 824 836 822 810 809 810 809 811 808 808 810 809 810 810 816 817 819 821 822 823 828 825 827 829 845 849 826 837 810 796 795 794 793 794 796 795
827 825 826 826 828 826 826 823 823 824 865 811 809 809 809 812 811 809 809 809 811 810 814 817 821 822 825 823 818 829 825 830 835 848 857 838 855 808 799 801 797 794 796 798 797
824 823 823 825 827 828 826 824 824 842 853 818 810 810 811 811 808 809 810 810 810 811 811 812 813 814 815 818 822 828 832 836 850 865 874 832 836 813 802 788 787 792 795 795 795
823 822 821 824 825 825 826 826 845 845 808 809 811 810 810 810 809 811 813 815 819 830 827 817 818 815 814 822 824 825 839 858 862 864 842 827 836 805 783 778 778 785 792 792 792
822 822 820 820 822 825 824 834 843 822 810 795 798 804 811 804 804 808 810 816 810 809 826 833 831 818 814 813 821 831 831 843 848 846 833 824 826 791 779 775 775 778 784 787 790
819 820 821 816 820 823 827 830 831 817 802 800 802 806 806 801 800 805 812 810 801 801 816 823 819 807 809 809 813 827 836 820 828 828 856 823 800 779 779 780 781 783 784 786 788
815 817 816 816 818 819 820 809 808 799 795 796 808 802 805 799 804 809 807 791 790 787 785 795 809 809 812 810 815 817 818 834 840 839 836 816 801 782 785 782 781 782 783 784 786
814 814 812 812 815 813 801 802 797 795 796 801 802 805 800 795 796 801 793 784 780 779 784 790 798 819 815 814 810 823 821 822 822 825 822 820 788 768 766 771 774 777 779 782 783
815 811 809 810 807 797 790 791 790 791 791 793 794 796 797 795 792 791 788 778 774 778 787 785 795 810 805 794 794 798 791 796 811 808 820 830 771 759 762 766 769 770 772 773 775
814 814 808 809 803 789 787 783 784 785 785 789 786 784 787 786 792 779 773 768 772 777 783 786 797 813 799 804 798 794 792 787 789 797 786 807 774 765 764 766 767 770 770 772 774
815 815 814 812 815 816 809 800 789 795 791 796 788 787 786 778 776 763 763 768 770 764 770 771 783 786 764 765 774 792 785 777 778 784 776 762 764 769 767 764 765 764 767 770 771
816 815 818 815 816 819 820 817 809 805 804 804 800 807 806 790 774 764 765 763 773 783 780 771 778 774 758 751 762 761 761 765 764 753 766 735 757 757 758 761 763 763 763 764 764
816 815 818 818 819 818 817 813 810 812 814 807 809 813 813 807 808 803 803 800 794 792 787 785 765 765 762 750 756 763 757 755 750 747 745 742 740 749 755 757 756 757 758 760 763
813 814 815 813 816 815 812 811 809 814 813 813 815 812 810 809 811 806 806 804 802 801 795 794 785 777 754 764 769 767 746 748 746 744 744 746 736 749 753 754 756 757 757 758 760
Wind_Speed
13 15 17 19 21 22 23 23 23 23 17 12 11 10 5 4 5 5 5 8 8 10 6 10 3 2 1 2 1 3 4 3 3 4 1 1 3 5 3 1 1 4 6 9 16
13 15 17 18 20 22 23 24 23 23 16 12 10 9 5 1 5 8 9 10 8 7 4 9 4 10 2 2 2 4 4 1 1 1 2 2 3 3 0 4 3 1 5 15 15
12 14 16 18 20 21 23 23 24 22 14 12 9 9 5 0 0 1 12 8 5 4 1 2 4 1 2 3 2 2 4 2 1 2 3 4 5 4 1 3 3 3 7 7 8
12 14 16 17 19 21 23 24 24 19 12 11 9 8 3 1 2 3 11 7 5 3 4 2 1 1 3 2 1 5 4 2 2 1 2 2 5 5 3 6 4 7 8 6 6
12 15 16 18 20 22 24 24 23 17 10 9 9 8 1 0 1 7 8 6 4 3 2 3 3 2 4 3 2 4 4 3 4 3 4 1 4 5 7 8 4 5 4 2 5
13 15 17 19 21 23 24 25 23 16 10 9 8 5 2 1 3 8 7 6 5 5 4 5 1 2 4 3 3 1 3 2 3 3 2 2 4 4 4 5 2 2 5 6 7
13 15 18 20 22 24 25 24 24 13 9 9 5 1 3 2 3 6 5 6 6 5 1 2 2 1 2 3 3 3 2 0 3 2 2 1 2 6 4 5 5 5 7 7 9
13 15 18 20 23 25 25 24 23 7 5 5 2 1 1 1 2 6 4 4 6 5 2 2 3 1 2 2 2 1 1 1 3 1 2 4 6 4 8 7 6 3 1 3 6
12 14 17 20 23 26 25 25 13 5 2 3 2 1 1 0 1 3 4 3 8 5 5 3 2 2 3 4 4 2 2 3 2 3 1 3 6 4 5 5 5 5 5 4 2
11 13 15 18 21 24 24 17 6 4 4 2 3 2 1 1 2 3 2 2 3 7 5 3 3 2 3 4 4 5 2 2 3 1 3 5 12 10 10 7 8 7 6 5 4
10 12 14 16 19 20 21 6 8 4 7 4 5 3 2 3 4 1 0 1 2 4 2 3 3 5 7 2 3 4 1 3 4 1 4 5 8 16 8 7 9 6 6 5 4
10 12 13 14 16 16 16 7 2 2 6 3 1 3 1 1 1 2 1 2 2 3 2 4 4 2 7 5 3 2 1 5 2 1 3 6 18 17 9 6 7 8 6 5 3
11 12 13 12 10 10 7 5 1 2 1 4 1 1 0 1 2 4 1 2 3 3 4 3 4 3 3 2 2 2 4 4 4 5 3 5 8 4 2 4 6 6 6 5 7
9 12 14 14 2 8 2 5 4 1 4 6 1 0 0 1 2 1 1 1 2 4 5 2 3 3 1 3 5 2 1 2 2 5 3 3 5 5 4 5 6 7 7 7 6
11 7 10 8 10 4 3 7 6 1 4 3 2 1 1 1 2 1 1 2 1 4 6 5 8 5 3 3 4 4 3 3 2 1 5 2 3 8 4 6 8 8 7 6 5
13 8 6 2 4 6 9 7 1 5 6 2 2 1 1 3 2 2 1 1 0 0 1 2 2 5 7 3 5 5 3 3 4 3 2 4 4 5 5 7 4 5 7 8 6
9 9 8 5 2 1 6 2 4 4 3 3 3 4 4 5 3 5 4 4 5 4 4 1 3 1 3 4 3 3 5 3 4 2 5 2 1 9 5 6 8 10 9 8 7
10 8 10 14 12 7 4 4 6 7 6 2 4 5 4 5 5 7 3 3 7 2 3 5 5 9 5 5 7 6 7 5 6 3 4 1 7 6 5 4 7 10 10 8 8
6 6 9 14 16 7 2 7 6 7 5 4 1 4 4 4 5 5 7 5 8 14 9 7 6 3 3 1 4 5 4 3 2 1 2 5 7 5 0 4 6 9 8 8 8
1 4 8 12 10 10 6 14 8 7 1 3 6 7 6 5 7 7 8 6 5 12 5 6 3 3 2 2 1 3 2 3 2 3 6 5 6 8 8 10 7 8 8 7 7
1 2 3 12 18 5 12 8 16 12 5 6 7 6 5 3 7 6 5 5 8 3 8 4 4 2 5 8 11 2 3 3 3 4 5 4 6 5 10 10 12 9 8 9 9
1 2 7 6 7 4 15 4 11 8 17 19 13 11 6 8 11 9 10 9 4 6 8 6 3 5 13 4 8 6 12 11 5 7 4 3 12 2 9 9 9 9 10 10 9
1 2 5 3 3 9 3 9 19 12 13 8 15 14 19 18 14 18 22 14 8 10 9 6 2 3 5 4 3 8 8 8 0 3 16 5 7 1 5 8 8 7 6 4 5
1 1 2 2 3 2 4 4 2 6 3 5 4 4 9 18 21 18 24 9 1 15 6 7 9 11 17 7 6 6 10 19 19 9 15 23 16 5 6 8 5 4 4 6 8
1 1 1 1 1 2 0 2 4 6 6 7 3 6 3 6 13 24 20 19 4 6 3 11 12 19 28 28 9 7 10 22 26 29 17 25 22 15 13 10 6 8 7 8 7
2 1 2 1 2 0 2 1 3 2 2 3 2 5 3 3 3 5 5 3 3 5 4 4 6 10 26 21 12 15 14 8 23 26 26 23 22 5 5 4 6 3 6 6 6
5 4 1 3 2 3 3 4 2 1 4 2 2 4 4 1 8 9 7 5 3 2 3 3 3 1 8 3 5 8 21 22 16 15 14 20 22 4 3 9 6 5 8 7 8
Wind_Direction
31 26 22 20 15 11 7 5 3 359 356 360 6 11 28 81 78 61 43 333 326 347 356 337 316 281 171 129 74 68 57 24 15 59 131 227 73 338 185 166 267 203 153 163 151
25 21 19 16 11 8 5 2 359 356 354 356 359 4 9 156 103 61 2 344 338 346 19 28 357 347 76 111 33 81 86 142 231 160 150 348 35 320 81 341 306 13 39 141 147
20 17 15 12 7 4 1 358 356 353 356 350 353 358 356 136 122 357 342 342 353 359 17 313 300 247 68 74 38 82 151 151 40 74 13 325 342 319 57 287 203 161 173 179 165
13 11 9 7 2 360 358 355 354 354 358 352 349 354 9 61 321 323 339 352 24 29 321 245 281 357 90 103 189 96 76 73 150 110 359 297 314 315 224 235 280 172 160 160 187
7 6 4 0 358 357 354 352 351 349 355 353 341 348 5 91 18 333 349 10 51 30 329 354 75 36 113 127 53 99 148 160 171 206 226 329 268 239 262 253 129 100 97 189 225
1 1 359 356 355 354 351 347 344 340 337 343 337 349 46 351 350 346 2 10 40 36 24 30 120 136 102 81 97 143 146 148 172 246 234 220 257 7 287 158 173 209 232 234 229
356 356 355 354 352 350 347 342 336 331 325 332 338 39 74 205 339 359 4 3 14 8 357 34 20 18 145 122 175 136 127 121 229 220 289 351 296 222 202 168 201 251 233 219 216
350 352 354 352 350 347 343 338 329 325 328 347 334 5 168 353 343 4 4 1 358 352 356 351 354 36 65 92 66 175 98 76 209 305 236 82 272 281 209 177 212 261 227 230 262
343 348 350 352 351 347 343 334 332 340 296 345 346 348 297 187 60 1 13 359 337 332 334 320 336 131 64 100 27 344 220 222 278 186 248 158 272 267 174 204 209 233 148 130 36
334 342 348 352 353 351 347 335 354 36 334 314 283 22 198 185 289 340 37 36 71 345 337 345 35 71 25 90 202 198 209 270 241 239 245 235 257 258 275 196 210 206 159 119 79
325 334 343 349 357 3 3 10 13 7 34 268 284 277 51 307 278 203 334 127 130 89 313 328 62 202 211 117 67 94 84 267 284 348 289 253 279 275 250 232 210 189 123 129 147
319 328 335 349 358 16 38 66 126 236 309 328 283 307 264 335 313 207 213 172 162 167 138 12 230 155 114 97 107 113 212 272 290 38 357 312 289 286 283 238 184 163 141 143 120
318 323 325 339 351 22 43 72 43 195 260 298 185 308 190 179 268 190 182 179 195 185 168 188 313 128 100 122 130 233 208 243 231 331 311 328 298 305 360 74 114 151 162 169 179
309 322 322 332 53 355 80 0 4 184 48 281 293 185 234 254 285 63 352 279 230 183 157 190 171 160 155 219 146 265 118 68 27 46 256 25 278 298 207 186 188 185 187 175 168
283 296 322 343 322 340 329 327 338 157 8 249 177 144 52 195 167 209 319 20 209 199 103 231 171 178 198 247 159 223 82 74 48 120 21 250 115 270 146 238 224 212 186 170 168
264 264 287 340 292 302 304 309 285 52 250 318 102 124 99 208 219 126 308 333 296 116 49 201 180 186 181 107 96 136 70 51 49 75 341 239 157 279 197 217 187 173 171 166 157
277 249 230 196 199 263 314 332 32 164 254 226 212 174 207 199 218 179 171 181 176 112 235 193 230 147 152 109 37 115 90 319 339 337 231 182 162 250 241 231 192 165 171 169 159
275 280 259 232 217 256 342 38 210 224 232 176 155 171 209 170 230 184 190 241 233 195 118 177 296 173 187 196 179 179 169 168 226 222 254 350 235 247 267 179 140 146 159 161 168
265 242 242 257 211 198 149 216 213 197 235 170 122 175 213 237 192 146 207 214 214 180 186 183 260 105 124 110 137 191 195 193 122 296 50 225 276 287 167 129 147 153 162 172 177
273 211 219 248 216 186 212 231 204 220 279 27 208 194 206 197 177 184 191 209 225 194 193 209 257 204 153 82 40 156 181 73 356 265 257 261 255 228 206 202 195 196 188 190 191
50 238 298 194 190 215 223 219 232 240 206 215 213 242 263 244 202 197 224 265 199 195 181 163 175 214 118 206 178 153 202 220 176 171 217 291 254 222 203 180 193 198 190 186 195
72 230 339 209 203 220 232 207 225 235 223 244 260 260 230 263 265 253 212 211 171 159 170 203 179 213 209 238 190 197 192 176 196 235 232 155 268 286 159 177 170 189 196 204 200
170 306 333 345 236 225 262 226 227 225 217 206 227 221 234 245 259 250 256 240 202 170 173 170 196 280 306 10 344 221 201 204 237 101 232 215 260 148 147 155 193 180 213 204 185
114 275 314 343 66 12 359 335 268 26 32 358 301 313 263 247 241 255 253 254 311 229 196 181 185 208 238 218 136 191 202 208 208 227 241 236 244 223 212 185 157 153 228 212 211
34 156 74 332 1 11 287 338 336 342 21 19 45 22 339 287 258 248 268 258 111 9 291 186 227 232 242 248 238 235 211 208 208 220 213 247 231 218 205 188 195 193 206 226 220
165 181 149 209 174 171 129 350 7 329 312 359 326 354 324 302 328 319 354 350 12 351 334 325 249 230 250 254 248 262 248 223 223 230 237 253 254 153 199 250 266 293 166 174 177
172 170 120 179 189 181 206 190 201 81 198 228 59 328 332 358 343 318 235 264 263 301 337 300 313 232 254 208 202 259 248 240 233 237 236 237 248 163 253 249 258 202 197 194 188